Regional Weather Roundup
Issued by NWS Jackson, KY

Home | Current Version | Previous Version | Text Only | Print | Product List | Glossary Off
Versions: 1 2 3 4 5 6 7 8 9 10 11 12 13 14 15 16 17 18 19 20 21 22 23 24 25 26 27 28 29 30 31 32 33 34 35 36 37 38 39 40 41 42 43 44 45 46 47 48 49 50

847
ASUS43 KJKL 131410
RWRJKL

EAST KENTUCKY HOURLY WEATHER ROUNDUP
NATIONAL WEATHER SERVICE JACKSON KY
900 AM EST SAT FEB 13 2016

NOTE: "FAIR" INDICATES FEW OR NO CLOUDS BELOW 12,000 FEET WITH
NO SIGNIFICANT WEATHER AND/OR OBSTRUCTIONS TO VISIBILITY.

* THESE REPORTS ARE NOT UNDER NWS QUALITY CONTROL AND MAY NOT
  REPORT WEATHER SUCH AS PRECIPITATION AND FOG.

KYZ079-080-083-085-087-088-110-112-115-119-120-131500
...EASTERN KENTUCKY...

CITY           SKY/WX    TMP DP  RH WIND       PRES   REMARKS
JACKSON        MOSUNNY   15   3  59 VRB7G17   30.43R WCI   5
LONDON         CLOUDY    18   5  57 NW14      30.45R WCI   4
SOMERSET*      MOSUNNY   18   5  57 N12       30.51R WCI   5
MONTICELLO*    SUNNY     19   9  65 N18       30.50R WCI   4
WILLIAMSBURG*  PTSUNNY   18  10  73 NW8       30.46R WCI   7
MIDDLESBORO*   FLURRIES  19  11  70 NE10G17   30.44R WCI   8
HARLAN APT*    CLOUDY    19   7  58 W5        30.39R WCI  13
HAZARD APT*    LGT SNOW  12   7  79 N6        30.44R WCI   3
BLACK MTN*       N/A      5   3  92 N12         N/A  WCI -11
BIG SANDY*     PTSUNNY   15   5  66 N6        30.43R WCI   6
MOREHEAD APT*  MOSUNNY   16   3  57 NW8G14    30.50R WCI   5
$$

KYZ035-036-041-042-044-050-067-078-099-131500
...CENTRAL KENTUCKY...

CITY           SKY/WX    TMP DP  RH WIND       PRES   REMARKS
MT STERLING*   MOSUNNY   16   7  67 N10       30.50R WCI   3
DANVILLE*      MOSUNNY   18   7  62 N13       30.51R WCI   4
RICHMOND*      MOSUNNY   14   7  73 NW6       30.49R WCI   5
LEXINGTON      MOSUNNY   15   4  61 N12       30.50R WCI   2
FRANKFORT      MOSUNNY   15   1  53 NW10      30.52R WCI   2
$$

KYZ091>093-OHZ055-061-077-WVZ005-015-034-035-042-131500
...SOUTHERN OHIO/WEST VIRGINIA...

CITY           SKY/WX    TMP DP  RH WIND       PRES   REMARKS
COVINGTON      PTSUNNY   11   3  70 NW10      30.51R WCI  -3
COLUMBUS       SUNNY      6  -9  50 NW13      30.46R WCI -10
DAYTON         MOSUNNY    7  -5  57 NW9       30.49R WCI  -7
WILMINGTON     MOSUNNY    8  -4  58 NW7       30.47R WCI  -3
HUNTINGTON     LGT SNOW  15   5  64 NW13G20   30.47R WCI   1
CHARLESTON     PTSUNNY   14   2  58 N14G24    30.42R WCI  -1
PINEVILLE*     LGT SNOW  14   6  69 MISG      30.37R
BECKLEY        LGT SNOW   8   0  69 NW14G24   30.24R WCI  -8
$$

VAZ002-007-008-TNZ017-027-036-066-071-131500
...SOUTHWEST VIRGINIA/EAST TENNESSEE...

CITY           SKY/WX    TMP DP  RH WIND       PRES   REMARKS
BRISTOL        CLOUDY    21   9  59 N9        30.35R WCI  11
KNOXVILLE      MOSUNNY   25  10  53 N12       30.42R WCI  14
OAK RIDGE      SUNNY     24   7  48 NW9       30.46R WCI  14
CROSSVILLE     MOSUNNY   19   6  57 N14G22    30.38R WCI   6
NASHVILLE      MOSUNNY   22   5  48 N9        30.56R WCI  12
$$

...KEY TO REMARKS...
VSB - VISIBILITY IN MILES
WCI - WIND CHILL INDEX
HX  - HEAT INDEX

$$




USA.gov is the U.S. government's official web portal to all federal, state and local government web resources and services.